Weather in Yershovskiy

Russia / Chelyabinsk Oblast     52°29′08″N   59°08′13″E
temp.,
°C
wind,
m/s
gust,
m/s
humid.,
%
clouds,
%
prec.,
mm/h
press.,
hPa
HPBL,
m
17 may, tue
tue1723:00+10sw511805 0.3 1004354
02:00+8sw410875 0.0 1004244
05:00+7sw498850 0.0 1005205
08:00+11sw587530 0.0 1004463
11:00+15wsw785535 0.6 10041450
14:00+16wsw894899 0.8 10042228
17:00+16wsw794931 1.1 10041999
20:00+13sw610655 0.2 1006599
18 may, wed
wed1823:00+10sw5107910 0.2 1007320
02:00+9sw3780100 0.0 1007174
05:00+8ssw3680100 0.0 1007123
08:00+11s476530 0.0 1007431
11:00+13sw91267100 0.3 10061510
14:00+12sw7961100 0.8 10051532
17:00+13wsw8104969 1.4 10042198
20:00+10wsw71271100 1.6 1005797
19 may, thu
thu1923:00+8wsw5128290 2.0 1007417
02:00+7wsw61386100 0.0 1007478
05:00+6wsw5119153 0.0 1008541
08:00+8wsw6117865 0.0 1010936
11:00+10w91272100 0.1 10111131
14:00+13w8105791 0.1 10111659
17:00+13wsw695827 0.6 10111366
20:00+12sw71170100 0.1 1011506
20 may, fri
fri2023:00+9sw51090100 0.1 1012325
02:00+9sw4791100 0.0 1011323
05:00+8ssw3593100 0.6 1009223
08:00+9wnw1190100 4.0 1008115
11:00+7nne2491100 13.9 1006330
14:00+7ne3691100 7.6 1005729
17:00+7nnw5793100 11.4 1005684
20:00+7wsw1187100 0.2 100576
21 may, sat
sat2123:00+6ssw489299 0.2 1005291
02:00+6w4789100 0.1 1004208
05:00+3w5993100 0.1 1004319
08:00+5wnw787991 0.0 1005881
11:00+5wnw7876100 0.1 10051170
14:00+7wnw7106199 0.2 10041707
17:00+8wnw9105876 0.3 10051681
20:00+5wnw8107244 0.1 10071010